Marysville, OH

2:47 PM EST on February 13, 2016 (GMT -0500)
Marysville

Weather History for KMRT - January, 2013

Change the Weather History Date:

Friday, January 18, 2013

  Actual Average (KCMH) Record (KCMH)
Temperature  
Mean Temperature 26 °F 29 °F  
Max Temperature 34 °F 36 °F 68 °F (1996)
Min Temperature 18 °F 22 °F -17 °F (1994)
Degree Days  
Heating Degree Days 40 36  
Month to date heating degree days 641  
Since 1 July heating degree days 2632  
Cooling Degree Days 0 0  
Month to date cooling degree days 0  
Year to date cooling degree days 0  
Moisture  
Dew Point 17 °F    
Average Humidity 68    
Maximum Humidity 84    
Minimum Humidity 53    
Precipitation  
Precipitation 0.00 in 0.09 in 0.79 in (1927)
Month to date precipitation 1.64  
Year to date precipitation 1.64  
Snow  
Snow 0.00 in 0.40 in 3.10 in (1985)
Month to date snowfall 5.4  
Since 1 July snowfall 11.5  
Snow Depth -    
Sea Level Pressure  
Sea Level Pressure 30.36 in    
Wind  
Wind Speed 9 mph (WSW)    
Max Wind Speed 21 mph    
Max Gust Speed 29 mph    
Visibility 10 miles    
Events      
T = Trace of Precipitation, MM = Missing Value Source: NWS Daily Summary

Daily Weather History Graph

Daily Weather History Graph

Search for Another Location

Airport or City:

Trip Planner

Search our weather history database for the weather conditions in past years. The results will help you decide how hot, cold, wet, or windy it might be!

Date:

Astronomy

Jan. 18, 2013 Rise Set
Actual Time 7:52 AM EST 5:35 PM EST
Civil Twilight 7:22 AM EST 6:05 PM EST
Nautical Twilight 6:49 AM EST 6:38 PM EST
Astronomical Twilight 6:17 AM EST 7:11 PM EST
Moon 11:29 AM EST (1/18) 12:25 AM EST (1/18)
Length of Visible Light 10h 42m
Length of Day
9h 43m
Waxing Crescent, 47% of the Moon is Illuminated
Jan 18
Waxing Crescent
Jan 18
First Quarter
Jan 26
Full
Feb 3
Last Quarter
Feb 10
New

Hourly Weather History & Observations

Time (EST) Temp. Windchill Dew Point Humidity Pressure Visibility Wind Dir Wind Speed Gust Speed Precip Events Conditions
12:14 AM 22.5 °F 15.1 °F 12.6 °F 66% 30.34 in 10.0 mi NNW 5.8 mph - N/A   Clear
12:34 AM 22.1 °F 13.7 °F 11.3 °F 63% 30.35 in 10.0 mi NNW 6.9 mph - N/A   Clear
12:54 AM 21.6 °F 14.0 °F 11.8 °F 66% 30.37 in 10.0 mi NNW 5.8 mph - N/A   Clear
1:14 AM 20.7 °F 13.0 °F 12.0 °F 69% 30.37 in 10.0 mi NW 5.8 mph - N/A   Clear
1:34 AM 20.5 °F 12.8 °F 12.6 °F 71% 30.38 in 10.0 mi NW 5.8 mph - N/A   Clear
1:54 AM 21.2 °F 12.6 °F 11.3 °F 66% 30.40 in 10.0 mi NW 6.9 mph - N/A   Clear
2:14 AM 20.3 °F 13.8 °F 11.1 °F 68% 30.40 in 10.0 mi NW 4.6 mph - N/A   Clear
2:34 AM 19.6 °F 14.5 °F 11.3 °F 70% 30.41 in 10.0 mi WNW 3.5 mph - N/A   Clear
2:54 AM 19.2 °F - 11.7 °F 72% 30.41 in 10.0 mi Calm Calm - N/A   Clear
3:14 AM 19.4 °F 12.8 °F 13.3 °F 77% 30.42 in 10.0 mi WNW 4.6 mph - N/A   Clear
3:34 AM 19.0 °F 12.3 °F 13.1 °F 78% 30.42 in 10.0 mi West 4.6 mph - N/A   Clear
3:54 AM 19.4 °F 14.3 °F 13.3 °F 77% 30.42 in 10.0 mi West 3.5 mph - N/A   Clear
4:14 AM 19.2 °F 14.1 °F 13.5 °F 78% 30.42 in 10.0 mi West 3.5 mph - N/A   Clear
4:34 AM 18.7 °F 11.9 °F 13.8 °F 81% 30.42 in 10.0 mi West 4.6 mph - N/A   Clear
4:54 AM 19.2 °F 14.1 °F 13.1 °F 77% 30.42 in 10.0 mi West 3.5 mph - N/A   Clear
5:14 AM 18.9 °F 12.1 °F 13.6 °F 80% 30.43 in 10.0 mi West 4.6 mph - N/A   Clear
5:34 AM 19.4 °F 10.4 °F 14.0 °F 80% 30.43 in 10.0 mi WSW 6.9 mph - N/A   Clear
5:54 AM 19.4 °F 11.5 °F 14.0 °F 80% 30.43 in 10.0 mi WSW 5.8 mph - N/A   Clear
6:14 AM 19.4 °F 11.5 °F 14.0 °F 80% 30.43 in 10.0 mi WSW 5.8 mph - N/A   Clear
6:34 AM 19.2 °F 12.5 °F 14.2 °F 81% 30.44 in 10.0 mi WSW 4.6 mph - N/A   Clear
6:54 AM 19.2 °F 12.5 °F 14.4 °F 81% 30.45 in 10.0 mi WSW 4.6 mph - N/A   Clear
7:14 AM 19.4 °F 12.8 °F 14.4 °F 81% 30.44 in 10.0 mi WSW 4.6 mph - N/A   Clear
7:34 AM 18.9 °F 13.7 °F 14.4 °F 83% 30.44 in 10.0 mi WSW 3.5 mph - N/A   Clear
7:54 AM 18.5 °F 11.7 °F 14.4 °F 84% 30.45 in 10.0 mi WSW 4.6 mph - N/A   Clear
8:14 AM 19.0 °F 12.3 °F 14.7 °F 83% 30.46 in 10.0 mi WSW 4.6 mph - N/A   Clear
8:34 AM 20.5 °F 11.7 °F 15.4 °F 81% 30.46 in 10.0 mi West 6.9 mph - N/A   Clear
8:54 AM 21.4 °F 13.8 °F 15.6 °F 78% 30.46 in 10.0 mi WSW 5.8 mph - N/A   Clear
9:14 AM 23.0 °F 13.9 °F 16.2 °F 75% 30.48 in 10.0 mi West 8.1 mph - N/A   Clear
9:34 AM 24.3 °F 16.3 °F 16.2 °F 71% 30.48 in 10.0 mi WSW 6.9 mph - N/A   Clear
9:54 AM 25.5 °F 16.9 °F 16.7 °F 69% 30.49 in 10.0 mi WSW 8.1 mph - N/A   Clear
10:14 AM 26.2 °F 18.6 °F 15.8 °F 65% 30.49 in 10.0 mi West 6.9 mph - N/A   Clear
10:34 AM 27.1 °F 18.9 °F 15.4 °F 61% 30.49 in 10.0 mi West 8.1 mph - N/A   Clear
10:54 AM 27.9 °F 20.6 °F 16.0 °F 61% 30.48 in 10.0 mi SW 6.9 mph - N/A   Clear
11:14 AM 28.4 °F 22.2 °F 15.8 °F 59% 30.47 in 10.0 mi WSW 5.8 mph - N/A   Clear
11:34 AM 28.9 °F 19.2 °F 16.7 °F 60% 30.46 in 10.0 mi SW 11.5 mph - N/A   Clear
11:54 AM 29.5 °F 19.9 °F 17.1 °F 60% 30.45 in 10.0 mi SW 11.5 mph 16.1 mph N/A   Clear
12:14 PM 30.2 °F 21.9 °F 16.3 °F 56% 30.44 in 10.0 mi WSW 9.2 mph 16.1 mph N/A   Clear
12:34 PM 31.5 °F 21.8 °F 17.8 °F 57% 30.42 in 10.0 mi SW 12.7 mph - N/A   Clear
12:54 PM 31.6 °F 22.1 °F 17.4 °F 56% 30.40 in 10.0 mi SW 12.7 mph - N/A   Clear
1:14 PM 32.0 °F 22.1 °F 16.7 °F 53% 30.39 in 10.0 mi SW 13.8 mph - N/A   Clear
1:34 PM 32.5 °F 22.3 °F 18.5 °F 56% 30.39 in 10.0 mi SSW 15.0 mph - N/A   Clear
1:54 PM 32.7 °F 21.4 °F 18.5 °F 56% 30.38 in 10.0 mi SW 18.4 mph - N/A   Clear
2:14 PM 32.9 °F 22.0 °F 18.5 °F 55% 30.37 in 10.0 mi SSW 17.3 mph 21.9 mph N/A   Clear
2:34 PM 32.9 °F 21.6 °F 18.0 °F 54% 30.37 in 10.0 mi SW 18.4 mph - N/A   Clear
2:54 PM 33.1 °F 21.2 °F 18.5 °F 55% 30.35 in 10.0 mi SW 20.7 mph 26.5 mph N/A   Clear
3:14 PM 33.3 °F 22.1 °F 19.4 °F 57% 30.35 in 10.0 mi SW 18.4 mph - N/A   Clear
3:34 PM 33.6 °F 22.9 °F 20.3 °F 58% 30.34 in 10.0 mi SSW 17.3 mph 23.0 mph N/A   Clear
3:54 PM 32.9 °F 22.4 °F 20.7 °F 61% 30.33 in 10.0 mi SW 16.1 mph 26.5 mph N/A   Clear
4:14 PM 32.9 °F 21.3 °F 19.8 °F 59% 30.33 in 10.0 mi SSW 19.6 mph 27.6 mph N/A   Clear
4:34 PM 32.9 °F 22.0 °F 19.4 °F 58% 30.32 in 10.0 mi SSW 17.3 mph 28.8 mph N/A   Clear
4:54 PM 32.9 °F 22.4 °F 20.7 °F 61% 30.30 in 10.0 mi SSW 16.1 mph 25.3 mph N/A   Clear
5:14 PM 32.4 °F 22.5 °F 20.5 °F 62% 30.30 in 10.0 mi SSW 13.8 mph 17.3 mph N/A   Clear
5:34 PM 32.0 °F 21.2 °F 20.7 °F 63% 30.30 in 10.0 mi SSW 16.1 mph 24.2 mph N/A   Clear
5:54 PM 32.0 °F 20.8 °F 20.7 °F 63% 30.29 in 10.0 mi SSW 17.3 mph 24.2 mph N/A   Clear
6:14 PM 32.0 °F 20.8 °F 21.6 °F 65% 30.29 in 10.0 mi SSW 17.3 mph - N/A   Clear
6:34 PM 31.8 °F 21.0 °F 21.9 °F 67% 30.29 in 10.0 mi SSW 16.1 mph - N/A   Clear
6:54 PM 31.5 °F 20.1 °F 21.9 °F 68% 30.28 in 10.0 mi SSW 17.3 mph - N/A   Clear
7:14 PM 31.5 °F 20.5 °F 21.9 °F 68% 30.28 in 10.0 mi SSW 16.1 mph - N/A   Clear
7:34 PM 31.1 °F 20.5 °F 21.9 °F 69% 30.27 in 10.0 mi SSW 15.0 mph - N/A   Clear
7:54 PM 31.5 °F 21.4 °F 21.9 °F 68% 30.27 in 10.0 mi SSW 13.8 mph - N/A   Clear
8:14 PM 31.5 °F 20.9 °F 22.1 °F 68% 30.26 in 10.0 mi SSW 15.0 mph - N/A   Clear
8:34 PM 31.6 °F 20.4 °F 22.1 °F 68% 30.25 in 10.0 mi SSW 17.3 mph 23.0 mph N/A   Clear
8:54 PM 31.8 °F 21.0 °F 22.3 °F 68% 30.24 in 10.0 mi SSW 16.1 mph 21.9 mph N/A   Clear
9:14 PM 32.0 °F 21.2 °F 22.8 °F 69% 30.23 in 10.0 mi SSW 16.1 mph 23.0 mph N/A   Clear
9:34 PM 32.0 °F 20.1 °F 23.0 °F 69% 30.22 in 10.0 mi SW 19.6 mph 27.6 mph N/A   Clear
9:54 PM 32.0 °F 20.1 °F 23.0 °F 69% 30.21 in 10.0 mi SW 19.6 mph 25.3 mph N/A   Clear
10:14 PM 32.2 °F 21.1 °F 23.4 °F 70% 30.20 in 10.0 mi SW 17.3 mph 24.2 mph N/A   Clear
10:34 PM 32.4 °F 20.6 °F 23.4 °F 69% 30.19 in 10.0 mi SW 19.6 mph 25.3 mph N/A   Clear
10:54 PM 32.5 °F 21.5 °F 23.4 °F 69% 30.19 in 10.0 mi SW 17.3 mph 24.2 mph N/A   Clear
11:14 PM 32.5 °F 21.5 °F 23.2 °F 68% 30.18 in 10.0 mi SSW 17.3 mph 24.2 mph N/A   Clear
11:34 PM 32.9 °F 22.0 °F 23.0 °F 67% 30.17 in 10.0 mi SSW 17.3 mph - N/A   Clear
11:54 PM 32.5 °F 22.3 °F 23.0 °F 68% 30.17 in 10.0 mi SSW 15.0 mph 21.9 mph N/A   Clear